{"data":{"norad_id":37180,"epoch":"2026-05-25T04:45:08.228160Z","epoch_age_seconds":68620,"freshness":"FRESH","line1":"1 37180U 10051B   26145.19801190  .00000380  00000+0  36190-4 0  9996","line2":"2 37180  97.8698 150.3763 0010982  25.8229 334.3540 14.99262042852232","mean_motion":14.99262042,"eccentricity":0.0010982,"inclination_deg":97.8698,"raan_deg":150.3763,"arg_perigee_deg":25.8229,"mean_anomaly_deg":334.354,"bstar":3.619e-5,"rev_number":85223,"period_min":96.047252558936,"perigee_km":561.54558304907,"apogee_km":576.80465939212,"semimajor_km":6947.3121212206,"source":"CELESTRAK","updated_at":"2026-05-25T13:37:55.225001Z"}}